Kansas City International, MO

1:37 AM CDT on May 30, 2017 (GMT -0500)
Kansas City International

Weather History for KMCI - September, 2012

Change the Weather History Date:

Friday, September 14, 2012

  Actual Average Record
Temperature  
Mean Temperature 61 °F 69 °F  
Max Temperature 71 °F 80 °F 100 °F (1939)
Min Temperature 51 °F 58 °F 41 °F (1993)
Degree Days  
Heating Degree Days 4 2  
Month to date heating degree days 11 10  
Since 1 July heating degree days 11 12  
Cooling Degree Days 0 5  
Month to date cooling degree days 115 102  
Year to date cooling degree days 1779 1275  
Growing Degree Days 11 (Base 50)    
Moisture  
Dew Point 49 °F    
Average Humidity 66    
Maximum Humidity 96    
Minimum Humidity 35    
Precipitation  
Precipitation 0.00 in 0.16 in 3.31 in (1967)
Month to date precipitation 2.75 2.17  
Year to date precipitation 18.41 29.57  
Snow  
Snow 0.00 in 0.00 in 0.00 in ()
Month to date snowfall 0.0 0.0  
Since 1 July snowfall 0.0 0.0  
Since 1 September snowfall 0.0 0.0  
Snow Depth 0.00 in    
Sea Level Pressure  
Sea Level Pressure 30.35 in    
Wind  
Wind Speed 7 mph (NE)    
Max Wind Speed 14 mph    
Max Gust Speed 17 mph    
Visibility 8 miles    
Events Fog    
T = Trace of Precipitation, MM = Missing Value Source: NWS Daily Summary

Daily Weather History Graph

Daily Weather History Graph

Search for Another Location

Airport or City:

Trip Planner

Search our weather history database for the weather conditions in past years. The results will help you decide how hot, cold, wet, or windy it might be!

Date:

Astronomy

Sep. 14, 2012 Rise Set
Actual Time 6:59 AM CDT 7:28 PM CDT
Civil Twilight 6:32 AM CDT 7:54 PM CDT
Nautical Twilight 6:01 AM CDT 8:26 PM CDT
Astronomical Twilight 5:28 AM CDT 8:58 PM CDT
Moon 5:25 AM CDT (9/14) 6:25 PM CDT (9/14)
Length of Visible Light 13h 22m
Length of Day
12h 28m
Waning Crescent, 2% of the Moon is Illuminated
Sep 14
Waning Crescent
Sep 15
New
Sep 22
First Quarter
Sep 29
Full
Oct 8
Last Quarter

Hourly Weather History & Observations

Time (CDT) Temp. Dew Point Humidity Pressure Visibility Wind Dir Wind Speed Gust Speed Precip Events Conditions
12:53 AM 54.0 °F 52.0 °F 93% 30.38 in 10.0 mi NE 5.8 mph - N/A   Overcast
1:53 AM 53.1 °F 51.1 °F 93% 30.38 in 10.0 mi NNE 6.9 mph - N/A   Overcast
2:53 AM 53.1 °F 51.1 °F 93% 30.37 in 9.0 mi NE 5.8 mph - N/A   Overcast
3:53 AM 52.0 °F 50.0 °F 93% 30.35 in 8.0 mi North 4.6 mph - N/A   Overcast
4:53 AM 51.1 °F 50.0 °F 96% 30.35 in 8.0 mi NNE 3.5 mph - N/A   Overcast
5:53 AM 52.0 °F 50.0 °F 93% 30.35 in 7.0 mi NE 3.5 mph - N/A   Overcast
6:53 AM 51.1 °F 48.9 °F 92% 30.37 in 4.0 mi NNW 4.6 mph - N/A Fog Patches of Fog
6:56 AM 51.8 °F 48.2 °F 88% 30.37 in 1.0 mi NNW 4.6 mph - N/A   Mist
7:26 AM 51.8 °F 50.0 °F 94% 30.38 in 0.2 mi North 6.9 mph - N/A   Overcast
7:53 AM 51.1 °F 50.0 °F 96% 30.39 in 1.0 mi NNE 8.1 mph - N/A   Mostly Cloudy
7:58 AM 51.8 °F 50.0 °F 94% 30.39 in 3.0 mi North 9.2 mph - N/A   Overcast
8:12 AM 51.8 °F 50.0 °F 94% 30.39 in 3.0 mi NNE 9.2 mph - N/A   Overcast
8:53 AM 53.1 °F 50.0 °F 89% 30.39 in 10.0 mi NNE 8.1 mph - N/A   Overcast
9:53 AM 55.9 °F 52.0 °F 87% 30.39 in 10.0 mi North 9.2 mph - N/A   Overcast
10:53 AM 59.0 °F 50.0 °F 72% 30.40 in 10.0 mi NNE 9.2 mph - N/A   Overcast
11:53 AM 60.1 °F 50.0 °F 69% 30.39 in 10.0 mi NNE 9.2 mph - N/A   Overcast
12:53 PM 63.0 °F 50.0 °F 63% 30.38 in 10.0 mi NNE 8.1 mph - N/A   Mostly Cloudy
1:53 PM 64.0 °F 48.0 °F 56% 30.36 in 10.0 mi NNE 9.2 mph - N/A   Mostly Cloudy
2:53 PM 68.0 °F 48.0 °F 49% 30.35 in 10.0 mi NNE 9.2 mph - N/A   Mostly Cloudy
3:53 PM 70.0 °F 45.0 °F 41% 30.32 in 10.0 mi NE 11.5 mph - N/A   Mostly Cloudy
4:53 PM 71.1 °F 45.0 °F 39% 30.31 in 10.0 mi ENE 8.1 mph - N/A   Scattered Clouds
5:53 PM 71.1 °F 43.0 °F 36% 30.30 in 10.0 mi East 10.4 mph - N/A   Scattered Clouds
6:53 PM 68.0 °F 45.0 °F 43% 30.30 in 10.0 mi ENE 6.9 mph - N/A   Mostly Cloudy
7:53 PM 63.0 °F 46.0 °F 54% 30.30 in 10.0 mi ENE 3.5 mph - N/A   Mostly Cloudy
8:53 PM 62.1 °F 46.9 °F 58% 30.31 in 10.0 mi ENE 5.8 mph - N/A   Mostly Cloudy
9:53 PM 60.1 °F 46.9 °F 62% 30.31 in 10.0 mi ENE 6.9 mph - N/A   Scattered Clouds
10:53 PM 60.1 °F 45.0 °F 57% 30.31 in 10.0 mi East 6.9 mph - N/A   Scattered Clouds
11:53 PM 57.9 °F 46.0 °F 65% 30.31 in 10.0 mi East 3.5 mph - N/A   Partly Cloudy